[[{"header":{"parameterUnit":"m.s-1","parameterCategory":1,"la1":30.2992,"la2":30.254,"lo1":-89.0895,"lo2":-89.0443,"dy":0.0025,"dx":0.0025,"nx":19,"ny":19,"refTime":"2026-05-10T21:00:00:Z","depth":0,"parameterNumber":2,"parameterNumberName":"U-component_of_WINDS"},"data":[0,0,0,-3.912,-3.9123,-3.9279,-3.9279,-3.9497,-3.9499,0,0,0,0,0,0,0,0,0,0,0,-3.9088,-3.909,-3.9119,-3.9124,-3.9279,-3.9279,-3.9496,-3.9499,0,0,0,0,0,0,0,0,0,0,0,-3.9087,-3.9089,-3.9092,-3.9124,-3.9279,-3.9279,-3.9496,-3.9371,0,0,0,0,0,0,0,0,0,0,-3.9217,-3.9203,-3.9089,-3.9092,-3.9125,-3.9278,-3.9279,-3.9365,-3.9379,-3.9435,0,-3.9492,0,-3.9499,-3.9515,-3.9516,0,0,0,-3.9112,-3.9191,-3.922,-3.9092,-3.9127,-3.9278,-3.9205,-3.9372,-3.9389,-3.9454,-3.9494,-3.9502,-3.9503,-3.9516,-3.9517,-3.9885,-3.9887,0,0,-3.9104,-3.9123,-3.9209,-3.9231,-3.9211,-3.9201,-3.921,-3.9382,-3.9426,-3.9495,-3.9507,-3.9506,-3.9518,-3.952,-3.9883,-3.9886,0,0,0,-3.9087,-3.9118,-3.9142,-3.9223,-3.9249,-3.9205,-3.9217,-3.9419,-3.9425,-3.9509,-3.9509,-3.9519,-3.9522,-3.9881,-3.9884,-4.0016,0,0,0,-3.9081,-3.9108,-3.9139,-3.9152,-3.9247,-3.9337,-3.925,-3.9413,-3.9432,-3.9508,-3.9519,-3.9525,-3.9878,-3.9883,-4.0007,-4.0076,0,0,0,-3.9073,-3.9106,-3.9134,-3.9153,-3.9221,-3.9333,-3.9349,-3.9417,-3.9432,-3.9516,-3.9525,-3.9877,-3.9882,-3.9999,-4.0063,-4.018,0,0,0,-3.9069,-3.9249,-3.9137,-3.9336,-3.922,-3.9414,-3.9348,-3.9491,-3.9578,-3.9521,-3.9879,-3.9884,-3.9997,-4.0055,-4.0171,-4.0283,-4.0331,0,0,-3.9306,-3.9278,-3.9393,-3.9298,-3.9518,-3.9389,-3.9627,-3.9687,-3.9675,-3.9815,-3.9824,-4.001,-4.0062,-4.0178,-4.059,-4.0628,0,0,0,-3.9475,-3.9559,-3.9612,-3.9698,-3.9748,-3.9797,-3.9819,-3.984,-3.9959,-3.9752,-4.0082,-4.0112,-4.0179,-4.0232,-4.0265,-4.0321,-3.9908,-3.9908,-3.9907,-3.984,-3.9817,-4.0006,-4.0002,-4.0084,-4.0104,-4.0168,-4.02,-4.0151,-4.0229,-4.0272,-4.0525,-4.0587,-4.0612,-4.0671,-4.0327,-4.0327,-4.0328,-4.0328,-4.0186,-4.0302,-4.0232,-4.0392,-4.0364,-4.0497,-4.0521,-4.0482,-4.06,-4.0491,-4.0549,-4.0435,-4.0655,-4.0705,-4.0338,-4.0336,-4.0335,-4.0334,-4.0333,-4.0425,-4.0476,-4.05,-4.0619,-4.0713,-4.0699,-4.0816,-4.0786,-4.0758,-4.0815,-4.0857,-4.0855,-4.085,-4.0837,-4.0838,-4.0838,-4.0839,-4.084,-4.084,-4.0664,-4.0686,-4.079,-4.0858,-4.0908,-4.0969,-4.0988,-4.1035,-4.108,-4.1048,-4.1049,-4.0992,-4.068,-4.0604,-4.0854,-4.0852,-4.085,-4.0849,-4.0848,-4.1028,-4.0941,-4.1101,-4.1151,-4.1227,-4.1322,-4.1281,-4.1379,-4.1413,-4.1471,-4.1401,-4.1175,-4.1143,-4.1117,-4.1054,-4.1405,-4.1405,-4.1405,-4.1405,-4.1231,-4.1211,-4.1368,-4.145,-4.1526,-4.1505,-4.1684,-4.1699,-4.1701,-4.172,-4.1663,-4.1576,-4.155,-4.1534,-4.1498,-4.1439,-4.1881,-4.1881,-4.1882,-4.1454,-4.144,-4.1601,-4.1603,-4.1659,-4.1708,-4.1875,-4.1969,-4.1952,-4.19,-4.1734,-4.1714,-4.1572,-4.1526,-4.1475,-4.1421,-4.1311,0,0]},{"header":{"parameterUnit":"m.s-1","parameterCategory":1,"la1":30.2992,"la2":30.254,"lo1":-89.0895,"lo2":-89.0443,"dy":0.0025,"dx":0.0025,"nx":19,"ny":19,"refTime":"2026-05-10T21:00:00:Z","depth":0,"parameterNumber":3,"parameterNumberName":"V-component_of_WINDS"},"data":[0,0,0,-3.3792,-3.3795,-3.3923,-3.3924,-3.4092,-3.4094,0,0,0,0,0,0,0,0,0,0,0,-3.3759,-3.3761,-3.3792,-3.3795,-3.3923,-3.3924,-3.4092,-3.4094,0,0,0,0,0,0,0,0,0,0,0,-3.3759,-3.376,-3.3762,-3.3796,-3.3923,-3.3924,-3.4092,-3.3993,0,0,0,0,0,0,0,0,0,0,-3.3868,-3.3843,-3.376,-3.3762,-3.3797,-3.3923,-3.3924,-3.3988,-3.3999,-3.4037,0,-3.4073,0,-3.4086,-3.4106,-3.4106,0,0,0,-3.3792,-3.3833,-3.3863,-3.3762,-3.3798,-3.3923,-3.3864,-3.3994,-3.4007,-3.4052,-3.4076,-3.4082,-3.4089,-3.4107,-3.4108,-3.4341,-3.4342,0,0,-3.3784,-3.3785,-3.3855,-3.3872,-3.3854,-3.386,-3.3868,-3.4002,-3.4028,-3.4076,-3.4086,-3.4092,-3.4108,-3.4109,-3.434,-3.4342,0,0,0,-3.3767,-3.378,-3.3807,-3.3865,-3.3888,-3.3864,-3.3873,-3.4022,-3.403,-3.4087,-3.4094,-3.4109,-3.4111,-3.4339,-3.4341,-3.4404,0,0,0,-3.3762,-3.377,-3.3804,-3.3805,-3.3885,-3.3957,-3.3891,-3.4021,-3.4036,-3.4093,-3.4109,-3.4113,-3.4337,-3.434,-3.44,-3.4435,0,0,0,-3.3749,-3.3768,-3.3788,-3.3805,-3.386,-3.3955,-3.3971,-3.4024,-3.404,-3.4106,-3.4113,-3.4336,-3.4339,-3.4396,-3.4428,-3.4497,0,0,0,-3.3735,-3.3844,-3.3789,-3.3912,-3.3859,-3.3993,-3.397,-3.407,-3.4134,-3.411,-3.4337,-3.434,-3.4394,-3.4424,-3.4492,-3.4555,-3.4581,0,0,-3.3872,-3.386,-3.3933,-3.3888,-3.4032,-3.3973,-3.4126,-3.4184,-3.419,-3.429,-3.4296,-3.4401,-3.4428,-3.4496,-3.4726,-3.4747,0,0,0,-3.3976,-3.4028,-3.4066,-3.4127,-3.4174,-3.4217,-3.4251,-3.4272,-3.4357,-3.4242,-3.4444,-3.446,-3.4499,-3.453,-3.4547,-3.4581,-3.4354,-3.4354,-3.4353,-3.4172,-3.4173,-3.4292,-3.4307,-3.4367,-3.44,-3.4447,-3.4481,-3.4465,-3.4512,-3.4543,-3.4682,-3.4717,-3.4731,-3.4766,-3.4575,-3.4575,-3.4575,-3.4575,-3.4374,-3.4448,-3.4421,-3.4528,-3.4526,-3.4615,-3.465,-3.4634,-3.4716,-3.466,-3.4695,-3.4635,-3.4754,-3.4784,-3.458,-3.4579,-3.4579,-3.4578,-3.4578,-3.4503,-3.4539,-3.4562,-3.4649,-3.4715,-3.4725,-3.4804,-3.48,-3.4797,-3.4831,-3.4862,-3.4861,-3.486,-3.4846,-3.4846,-3.4847,-3.4847,-3.4848,-3.4848,-3.463,-3.4653,-3.4721,-3.4778,-3.4815,-3.4864,-3.4895,-3.4932,-3.497,-3.4961,-3.4961,-3.494,-3.4765,-3.4722,-3.4856,-3.4854,-3.4853,-3.4852,-3.4852,-3.4836,-3.4788,-3.4893,-3.4931,-3.4995,-3.506,-3.5052,-3.5126,-3.5155,-3.5193,-3.5163,-3.5034,-3.5022,-3.5008,-3.4972,-3.5163,-3.5163,-3.5163,-3.5163,-3.4947,-3.4939,-3.5044,-3.5104,-3.5162,-3.5164,-3.528,-3.5305,-3.5322,-3.5339,-3.531,-3.5262,-3.5247,-3.5243,-3.5224,-3.5191,-3.5433,-3.5433,-3.5434,-3.5074,-3.5071,-3.5172,-3.5189,-3.5238,-3.528,-3.5388,-3.5456,-3.5465,-3.5444,-3.5353,-3.5341,-3.5263,-3.5237,-3.5217,-3.5187,-3.5126,0,0]}]]